CMP792 SKBQ-MPTO

Flight info

Callsign CMP792
Flight time 0h 52m
Altitude 38000
Route CTG2F CTG UL335 BOGAL DCT ISOKO ISOKO2
Aircraft B737/M-SDE2E3FGHIRWXY/LB1

Departure

Time 2026-04-21 17:19
Airport Ernesto Cortissoz International Airport (SKBQ)

Arrival

Time 2026-04-21 18:11
Airport Tocumen International Airport (MPTO)
Time Latitude Longitude Altitude Speed Heading
2026-04-21 16:06 10.88789 -74.77678 95 ft 0 kts 129°
2026-04-21 16:50 10.88790 -74.77679 97 ft 2 kts 129°
2026-04-21 16:50 10.88806 -74.77699 97 ft 4 kts 129°
2026-04-21 16:50 10.88820 -74.77716 94 ft 4 kts 116°
2026-04-21 16:51 10.88823 -74.77720 94 ft 0 kts 106°
2026-04-21 16:51 10.88789 -74.77678 95 ft 0 kts 129°
2026-04-21 16:54 10.88801 -74.77692 94 ft 4 kts 130°
2026-04-21 16:55 10.88816 -74.77711 96 ft 2 kts 130°
2026-04-21 16:55 10.88833 -74.77727 94 ft 4 kts 165°
2026-04-21 16:55 10.88856 -74.77724 95 ft 4 kts 217°
2026-04-21 16:55 10.88876 -74.77707 95 ft 4 kts 220°
2026-04-21 16:56 10.88882 -74.77702 95 ft 0 kts 220°
2026-04-21 17:15 10.88870 -74.77712 95 ft 6 kts 220°
2026-04-21 17:15 10.88816 -74.77759 95 ft 14 kts 220°
2026-04-21 17:15 10.88718 -74.77843 95 ft 22 kts 220°
2026-04-21 17:15 10.88583 -74.77954 95 ft 26 kts 220°
2026-04-21 17:16 10.88447 -74.78070 96 ft 25 kts 224°
2026-04-21 17:16 10.88434 -74.78230 98 ft 23 kts 281°
2026-04-21 17:16 10.88358 -74.78356 99 ft 22 kts 220°
2026-04-21 17:16 10.88234 -74.78461 101 ft 24 kts 220°
2026-04-21 17:17 10.88104 -74.78571 103 ft 24 kts 219°
2026-04-21 17:17 10.87981 -74.78677 106 ft 23 kts 221°
2026-04-21 17:17 10.87912 -74.78810 108 ft 22 kts 266°
2026-04-21 17:17 10.87917 -74.78947 109 ft 16 kts 321°
2026-04-21 17:18 10.88047 -74.78876 106 ft 46 kts 39°
2026-04-21 17:18 10.88481 -74.78503 101 ft 116 kts 39°
2026-04-21 17:18 10.89247 -74.77844 96 ft 170 kts 35°
2026-04-21 17:18 10.90187 -74.77057 656 ft 177 kts 42°
2026-04-21 17:19 10.91115 -74.76245 1385 ft 177 kts 41°
2026-04-21 17:19 10.92041 -74.75428 2131 ft 175 kts 41°
2026-04-21 17:19 10.92963 -74.74611 2799 ft 178 kts 41°
2026-04-21 17:19 10.93978 -74.73737 3119 ft 206 kts 33°
2026-04-21 17:20 10.95392 -74.73296 3452 ft 222 kts 359°
2026-04-21 17:20 10.96933 -74.73638 3784 ft 240 kts 330°
2026-04-21 17:20 10.98197 -74.74784 4254 ft 248 kts 310°
2026-04-21 17:20 10.99282 -74.76170 4863 ft 251 kts 307°
2026-04-21 17:21 11.00343 -74.77594 5512 ft 254 kts 307°
2026-04-21 17:21 11.01402 -74.79009 6158 ft 256 kts 308°
2026-04-21 17:21 11.02494 -74.80453 6791 ft 259 kts 308°
2026-04-21 17:21 11.03604 -74.81905 7439 ft 261 kts 308°
2026-04-21 17:22 11.04363 -74.82894 7895 ft 263 kts 309°
2026-04-21 17:22 11.05866 -74.84845 8805 ft 266 kts 309°
2026-04-21 17:22 11.06995 -74.86349 9502 ft 270 kts 302°
2026-04-21 17:22 11.07575 -74.88164 10133 ft 275 kts 272°
2026-04-21 17:23 11.07216 -74.90062 10789 ft 277 kts 246°
2026-04-21 17:23 11.06307 -74.91800 11445 ft 279 kts 240°
2026-04-21 17:23 11.05303 -74.93495 12098 ft 281 kts 238°
2026-04-21 17:23 11.04271 -74.95193 12752 ft 283 kts 238°
2026-04-21 17:24 11.03231 -74.96904 13416 ft 285 kts 238°
2026-04-21 17:24 11.02185 -74.98632 14055 ft 287 kts 238°
2026-04-21 17:24 11.01136 -75.00375 14624 ft 291 kts 238°
2026-04-21 17:24 11.00075 -75.02147 15181 ft 295 kts 238°
2026-04-21 17:25 10.99004 -75.03942 15763 ft 298 kts 238°
2026-04-21 17:25 10.97922 -75.05758 16351 ft 302 kts 238°
2026-04-21 17:25 10.97199 -75.06975 16723 ft 305 kts 238°
2026-04-21 17:25 10.96097 -75.08831 17279 ft 308 kts 238°
2026-04-21 17:26 10.94984 -75.10707 17860 ft 311 kts 238°
2026-04-21 17:26 10.93860 -75.12602 18373 ft 315 kts 238°
2026-04-21 17:26 10.92721 -75.14523 18828 ft 319 kts 238°
2026-04-21 17:26 10.91575 -75.16457 19367 ft 319 kts 238°
2026-04-21 17:27 10.90425 -75.18397 19852 ft 322 kts 238°
2026-04-21 17:27 10.89260 -75.20364 20311 ft 326 kts 238°
2026-04-21 17:27 10.88084 -75.22349 20783 ft 329 kts 238°
2026-04-21 17:27 10.86895 -75.24355 21243 ft 332 kts 238°
2026-04-21 17:28 10.85697 -75.26376 21700 ft 335 kts 238°
2026-04-21 17:28 10.84486 -75.28419 22135 ft 339 kts 238°
2026-04-21 17:28 10.83263 -75.30479 22576 ft 342 kts 238°
2026-04-21 17:28 10.82030 -75.32558 23009 ft 345 kts 238°
2026-04-21 17:29 10.80766 -75.34688 23182 ft 362 kts 238°
2026-04-21 17:29 10.79432 -75.36935 23329 ft 380 kts 238°
2026-04-21 17:29 10.78031 -75.39293 23460 ft 398 kts 238°
2026-04-21 17:29 10.76572 -75.41750 23570 ft 413 kts 238°
2026-04-21 17:30 10.75061 -75.44294 23661 ft 427 kts 238°
2026-04-21 17:30 10.73504 -75.46916 23795 ft 438 kts 238°
2026-04-21 17:30 10.71919 -75.49587 24078 ft 443 kts 238°
2026-04-21 17:30 10.70326 -75.52268 24525 ft 443 kts 238°
2026-04-21 17:31 10.68736 -75.54946 24993 ft 442 kts 238°
2026-04-21 17:31 10.67142 -75.57628 25396 ft 444 kts 238°
2026-04-21 17:31 10.65542 -75.60320 25767 ft 446 kts 238°
2026-04-21 17:31 10.63935 -75.63020 26156 ft 447 kts 238°
2026-04-21 17:32 10.62323 -75.65731 26546 ft 449 kts 238°
2026-04-21 17:32 10.60706 -75.68448 26936 ft 450 kts 238°
2026-04-21 17:32 10.59086 -75.71169 27326 ft 450 kts 238°
2026-04-21 17:32 10.57464 -75.73893 27709 ft 451 kts 238°
2026-04-21 17:33 10.55835 -75.76630 28058 ft 453 kts 238°
2026-04-21 17:33 10.54223 -75.79336 28416 ft 454 kts 238°
2026-04-21 17:33 10.52582 -75.82089 28754 ft 456 kts 238°
2026-04-21 17:33 10.50937 -75.84850 29077 ft 458 kts 238°
2026-04-21 17:34 10.49287 -75.87617 29452 ft 458 kts 238°
2026-04-21 17:34 10.47634 -75.90390 29732 ft 460 kts 238°
2026-04-21 17:34 10.45972 -75.93176 30027 ft 462 kts 238°
2026-04-21 17:34 10.44305 -75.95971 30283 ft 463 kts 238°
2026-04-21 17:35 10.42631 -75.98776 30509 ft 465 kts 238°
2026-04-21 17:35 10.40953 -76.01587 30810 ft 465 kts 238°
2026-04-21 17:35 10.39279 -76.04391 31143 ft 464 kts 238°
2026-04-21 17:35 10.37608 -76.07189 31552 ft 462 kts 238°
2026-04-21 17:36 10.35947 -76.09970 31957 ft 460 kts 238°
2026-04-21 17:36 10.34290 -76.12744 32310 ft 459 kts 238°
2026-04-21 17:36 10.32634 -76.15515 32693 ft 458 kts 238°
2026-04-21 17:36 10.30982 -76.18278 33064 ft 458 kts 238°
2026-04-21 17:37 10.29333 -76.21036 33489 ft 456 kts 238°
2026-04-21 17:37 10.27693 -76.23779 33923 ft 454 kts 238°
2026-04-21 17:37 10.26055 -76.26516 34195 ft 455 kts 237°
2026-04-21 17:37 10.24408 -76.29268 34436 ft 456 kts 237°
2026-04-21 17:38 10.22762 -76.32019 34769 ft 455 kts 237°
2026-04-21 17:38 10.21124 -76.34755 35134 ft 453 kts 237°
2026-04-21 17:38 10.19490 -76.37483 35459 ft 451 kts 237°
2026-04-21 17:38 10.17861 -76.40203 35726 ft 451 kts 237°
2026-04-21 17:39 10.16230 -76.42926 36004 ft 451 kts 237°
2026-04-21 17:39 10.14602 -76.45643 36308 ft 450 kts 237°
2026-04-21 17:39 10.12979 -76.48351 36605 ft 449 kts 238°
2026-04-21 17:39 10.11360 -76.51058 36872 ft 448 kts 238°
2026-04-21 17:40 10.09743 -76.53760 37101 ft 448 kts 238°
2026-04-21 17:40 10.08124 -76.56462 37347 ft 448 kts 238°
2026-04-21 17:40 10.06507 -76.59159 37615 ft 447 kts 238°
2026-04-21 17:40 10.04893 -76.61848 37885 ft 446 kts 238°
2026-04-21 17:41 10.01651 -76.67248 37973 ft 449 kts 238°
2026-04-21 17:41 9.98410 -76.72644 37958 ft 446 kts 238°
2026-04-21 17:42 9.95196 -76.77992 37963 ft 442 kts 238°
2026-04-21 17:42 9.92002 -76.83305 37961 ft 440 kts 237°
2026-04-21 17:43 9.88841 -76.88561 37964 ft 439 kts 237°
2026-04-21 17:43 9.85655 -76.93855 37976 ft 440 kts 237°
2026-04-21 17:44 9.82456 -76.99169 37968 ft 443 kts 237°
2026-04-21 17:44 9.79237 -77.04513 37970 ft 446 kts 237°
2026-04-21 17:45 9.75996 -77.09893 37966 ft 448 kts 237°
2026-04-21 17:45 9.72740 -77.15295 37970 ft 450 kts 237°
2026-04-21 17:46 9.69466 -77.20724 37967 ft 452 kts 237°
2026-04-21 17:46 9.66188 -77.26157 37965 ft 452 kts 237°
2026-04-21 17:47 9.62907 -77.31592 37964 ft 452 kts 237°
2026-04-21 17:47 9.59626 -77.37025 37959 ft 451 kts 237°
2026-04-21 17:48 9.56478 -77.42469 37957 ft 452 kts 244°
2026-04-21 17:48 9.54253 -77.48420 37960 ft 452 kts 249°
2026-04-21 17:49 9.52122 -77.54398 37963 ft 451 kts 249°
2026-04-21 17:49 9.49969 -77.60357 37966 ft 450 kts 248°
2026-04-21 17:50 9.47796 -77.66304 37962 ft 450 kts 248°
2026-04-21 17:50 9.45626 -77.72219 37926 ft 441 kts 248°
2026-04-21 17:51 9.44570 -77.75099 37558 ft 434 kts 248°
2026-04-21 17:51 9.43512 -77.77979 36739 ft 439 kts 248°
2026-04-21 17:51 9.42438 -77.80901 35812 ft 447 kts 248°
2026-04-21 17:51 9.41344 -77.83874 34892 ft 454 kts 248°
2026-04-21 17:52 9.40235 -77.86891 34013 ft 460 kts 248°
2026-04-21 17:52 9.39114 -77.89940 33138 ft 463 kts 248°
2026-04-21 17:52 9.37995 -77.92986 32481 ft 461 kts 248°
2026-04-21 17:52 9.36882 -77.96017 31894 ft 457 kts 248°
2026-04-21 17:53 9.35780 -77.99016 31350 ft 453 kts 248°
2026-04-21 17:53 9.34685 -78.01996 30816 ft 449 kts 248°
2026-04-21 17:53 9.33614 -78.04908 30290 ft 446 kts 248°
2026-04-21 17:53 9.32534 -78.07841 29706 ft 443 kts 248°
2026-04-21 17:54 9.31465 -78.10744 29115 ft 439 kts 248°
2026-04-21 17:54 9.30403 -78.13628 28547 ft 434 kts 248°
2026-04-21 17:54 9.29352 -78.16481 28000 ft 430 kts 248°
2026-04-21 17:54 9.28311 -78.19305 27464 ft 426 kts 248°
2026-04-21 17:55 9.27279 -78.22104 26938 ft 423 kts 248°
2026-04-21 17:55 9.26263 -78.24867 26769 ft 413 kts 248°
2026-04-21 17:55 9.25274 -78.27582 26567 ft 410 kts 248°
2026-04-21 17:55 9.24285 -78.30310 25869 ft 416 kts 248°
2026-04-21 17:56 9.23283 -78.33076 25159 ft 421 kts 249°
2026-04-21 17:56 9.22272 -78.35856 24565 ft 421 kts 249°
2026-04-21 17:56 9.21257 -78.38631 24064 ft 419 kts 249°
2026-04-21 17:56 9.20245 -78.41384 23561 ft 417 kts 249°
2026-04-21 17:57 9.19234 -78.44121 23007 ft 414 kts 249°
2026-04-21 17:57 9.18331 -78.46865 22503 ft 408 kts 258°
2026-04-21 17:57 9.18062 -78.49684 21804 ft 401 kts 271°
2026-04-21 17:57 9.18285 -78.52480 21030 ft 396 kts 281°
2026-04-21 17:58 9.18849 -78.55191 20248 ft 393 kts 283°
2026-04-21 17:58 9.19438 -78.57879 19603 ft 389 kts 283°
2026-04-21 17:58 9.20012 -78.60508 19098 ft 377 kts 283°
2026-04-21 17:58 9.20569 -78.63087 18395 ft 374 kts 282°
2026-04-21 17:59 9.21116 -78.65649 17594 ft 371 kts 282°
2026-04-21 17:59 9.21652 -78.68179 16876 ft 365 kts 282°
2026-04-21 17:59 9.22181 -78.70690 16022 ft 365 kts 282°
2026-04-21 17:59 9.22706 -78.73194 15299 ft 361 kts 281°
2026-04-21 18:00 9.23225 -78.75669 14617 ft 357 kts 281°
2026-04-21 18:00 9.23736 -78.78109 13926 ft 353 kts 281°
2026-04-21 18:00 9.24244 -78.80538 13217 ft 350 kts 281°
2026-04-21 18:00 9.24735 -78.82887 12958 ft 331 kts 281°
2026-04-21 18:01 9.25197 -78.85099 12818 ft 311 kts 281°
2026-04-21 18:01 9.25637 -78.87202 12402 ft 304 kts 281°
2026-04-21 18:01 9.26165 -78.89264 11833 ft 303 kts 292°
2026-04-21 18:01 9.27243 -78.91050 11264 ft 301 kts 311°
2026-04-21 18:02 9.28649 -78.92585 10854 ft 294 kts 315°
2026-04-21 18:02 9.30069 -78.94042 10448 ft 288 kts 316°
2026-04-21 18:02 9.31478 -78.95476 9923 ft 287 kts 316°
2026-04-21 18:02 9.32631 -78.97110 9320 ft 289 kts 293°
2026-04-21 18:03 9.33025 -78.99085 8791 ft 288 kts 270°
2026-04-21 18:03 9.32872 -79.01086 8362 ft 282 kts 265°
2026-04-21 18:03 9.32662 -79.03050 7854 ft 279 kts 265°
2026-04-21 18:03 9.32449 -79.05006 7270 ft 281 kts 266°
2026-04-21 18:04 9.32244 -79.06964 6799 ft 278 kts 266°
2026-04-21 18:04 9.32048 -79.08910 6292 ft 278 kts 267°
2026-04-21 18:04 9.31857 -79.10833 5987 ft 270 kts 267°
2026-04-21 18:04 9.31674 -79.12677 5917 ft 258 kts 267°
2026-04-21 18:05 9.31452 -79.14450 5734 ft 252 kts 256°
2026-04-21 18:05 9.30600 -79.15990 5451 ft 253 kts 231°
2026-04-21 18:05 9.29390 -79.17287 5148 ft 254 kts 226°
2026-04-21 18:05 9.28130 -79.18553 4806 ft 256 kts 226°
2026-04-21 18:06 9.26865 -79.19837 4472 ft 259 kts 227°
2026-04-21 18:06 9.25612 -79.21121 4267 ft 256 kts 227°
2026-04-21 18:06 9.24375 -79.22395 3953 ft 250 kts 227°
2026-04-21 18:06 9.23194 -79.23616 3633 ft 235 kts 227°
2026-04-21 18:07 9.22099 -79.24749 3397 ft 216 kts 228°
2026-04-21 18:07 9.21091 -79.25793 3162 ft 199 kts 229°
2026-04-21 18:07 9.20149 -79.26769 2956 ft 187 kts 228°
2026-04-21 18:07 9.19262 -79.27689 2787 ft 180 kts 228°
2026-04-21 18:08 9.18434 -79.28546 2597 ft 165 kts 229°
2026-04-21 18:08 9.17655 -79.29355 2406 ft 159 kts 227°
2026-04-21 18:08 9.16896 -79.30142 2186 ft 157 kts 227°
2026-04-21 18:08 9.16125 -79.30943 1983 ft 162 kts 230°
2026-04-21 18:09 9.15344 -79.31753 1802 ft 156 kts 229°
2026-04-21 18:09 9.14592 -79.32533 1559 ft 155 kts 229°
2026-04-21 18:09 9.14073 -79.33071 1400 ft 160 kts 229°
2026-04-21 18:09 9.13049 -79.34132 1147 ft 159 kts 231°
2026-04-21 18:10 9.12276 -79.34936 912 ft 162 kts 228°
2026-04-21 18:10 9.11505 -79.35748 743 ft 156 kts 227°
2026-04-21 18:10 9.10761 -79.36531 542 ft 154 kts 222°
2026-04-21 18:10 9.09905 -79.37156 305 ft 147 kts 208°
2026-04-21 18:11 9.09057 -79.37667 142 ft 137 kts 207°
2026-04-21 18:11 9.08350 -79.38087 104 ft 96 kts 211°
2026-04-21 18:11 9.07903 -79.38355 74 ft 61 kts 211°
2026-04-21 18:11 9.07601 -79.38539 62 ft 38 kts 211°
2026-04-21 18:12 9.07423 -79.38644 55 ft 22 kts 210°
2026-04-21 18:12 9.07301 -79.38708 54 ft 14 kts 178°
2026-04-21 18:12 9.07263 -79.38641 51 ft 10 kts 103°
2026-04-21 18:12 9.07246 -79.38571 51 ft 10 kts 109°
2026-04-21 18:13 9.07214 -79.38511 51 ft 10 kts 119°
2026-04-21 18:13 9.07183 -79.38453 50 ft 9 kts 119°
2026-04-21 18:13 9.07150 -79.38399 49 ft 9 kts 135°
2026-04-21 18:13 9.07090 -79.38391 46 ft 9 kts 205°
2026-04-21 18:14 9.06982 -79.38455 50 ft 10 kts 208°
2026-04-21 18:14 9.06961 -79.38505 50 ft 9 kts 297°
2026-04-21 18:14 9.06985 -79.38550 51 ft 2 kts 300°
2026-04-21 18:15 9.06985 -79.38551 51 ft 0 kts 300°